Flag for Kuwait Weather past 2 weeks in Kuwait City, Kuwait

Now
81 °F

Sunny.


Feels Like: 80 °F
Forecast: 78 / 96 °F
Wind: 7 mph from North

Location: Kuwait International Airport


UV Index: 7 (High)

Visibility: 10 mi


Pressure: 29.80 "Hg

Humidity: 32%

Dew point: 48 °F

Location of Kuwait CityLocation

Historic Weather in Kuwait City

°F

Kuwait City temperature yesterday

Maximum temperature yesterday: 100 °F (at 2:00 PM)
Minimum temperature yesterday: 70 °F (at 5:00 AM)
Average temperature yesterday: 88 °F

Past Weeks' High & Low Weather Summary

 TemperatureHumidityPressure
High102 °F (Apr 18, 11:00 AM)73% (Apr 10, 6:00 AM)30.15 "Hg (Apr 10, 6:00 AM)
Low54 °F (Apr 6, 5:00 AM)7% (Apr 9, 12:00 PM)29.74 "Hg (Apr 18, 12:00 AM)
Average83 °F29%29.91 "Hg
* Reported Apr 6 5:00 AM — Apr 21 5:00 AM, Kuwait City, Weather by CustomWeather, © 2014

Note: Actual official high and low records may vary slightly from our data, if they occured in-between our weather recording intervals... More about our weather records

Advertising

Historic Weather Conditions — Data for Previous 24 hours

 ConditionsComfort  
Time TempWeatherWind HumidityBarometerVisibility
5:00 AM
Apr 21
81 °FClear.9 mph34%29.77 "Hg10 mi
4:00 AM82 °FClear.9 mph32%29.77 "Hg10 mi
3:00 AM84 °FClear.13 mph31%29.77 "Hg10 mi
2:00 AM84 °FClear.9 mph29%29.77 "Hg10 mi
1:00 AM86 °FClear.16 mph29%29.80 "Hg10 mi
12:00 AM86 °FClear.17 mph29%29.80 "Hg10 mi
11:00 PM
Apr 20
88 °FClear.16 mph27%29.80 "Hg10 mi
10:00 PM90 °FClear.14 mph24%29.80 "Hg10 mi
9:00 PM91 °FClear.12 mph23%29.80 "Hg10 mi
8:00 PM91 °FClear.14 mph21%29.80 "Hg10 mi
7:00 PM93 °FClear.13 mph17%29.77 "Hg10 mi
6:00 PM97 °FSunny.15 mph17%29.77 "Hg10 mi
5:00 PM99 °FSunny.17 mph14%29.74 "Hg10 mi
4:00 PM100 °FSunny.18 mph10%29.74 "Hg10 mi
3:00 PM100 °FSunny.16 mph8%29.77 "Hg10 mi
2:00 PM100 °FSunny.17 mph9%29.77 "Hg10 mi
1:00 PM99 °FSunny.16 mph10%29.80 "Hg10 mi
12:00 PM97 °FSunny.14 mph13%29.80 "Hg10 mi
11:00 AM95 °FSunny.18 mph13%29.83 "Hg10 mi
10:00 AM93 °FSunny.22 mph16%29.83 "Hg4 mi
9:00 AM90 °FSunny.18 mph20%29.86 "Hg5 mi
8:00 AM84 °FSunny.14 mph22%29.86 "Hg10 mi
7:00 AM81 °FSunny.12 mph23%29.86 "Hg10 mi
6:00 AM72 °FSunny.6 mph31%29.86 "Hg10 mi
Weather by CustomWeather, © 2014

See weather overview